{"data":{"norad_id":69439,"epoch":"2026-09-19T22:11:41.311680Z","epoch_age_seconds":75108,"freshness":"FRESH","line1":"1 69439U 26126V   26262.92478370  .00020379  00000+0  63157-3 0  9991","line2":"2 69439  97.2847 124.1260 0002474  94.9375 265.2150 15.33458124 17432","mean_motion":15.33458124,"eccentricity":0.0002474,"inclination_deg":97.2847,"raan_deg":124.126,"arg_perigee_deg":94.9375,"mean_anomaly_deg":265.215,"bstar":0.00063157,"rev_number":1743,"period_min":93.905400966789,"perigee_km":463.81101015133,"apogee_km":467.19724378095,"semimajor_km":6843.6411269661,"source":"CELESTRAK","updated_at":"2026-09-20T09:00:44.198055Z"}}